Weather History for Leadville, CO

Change the Weather History Date:

Wednesday, January 22, 2014

  Actual Average Record
Temperature  
Mean Temperature 23 °F -  
Max Temperature 38 °F 30 °F 44 °F (2005)
Min Temperature 8 °F 4 °F -15 °F (1988)
Degree Days  
Heating Degree Days 42 48  
Month to date heating degree days 1058 1056  
Since 1 July heating degree days 5813 5957  
Cooling Degree Days 0 0  
Month to date cooling degree days 0 0  
Year to date cooling degree days 0 0  
Moisture  
Dew Point -10 °F    
Average Humidity 37    
Maximum Humidity 67    
Minimum Humidity 7    
Precipitation  
Precipitation 0.00 in 0.02 in 0.24 in (2011)
Month to date precipitation 1.39 0.45  
Year to date precipitation 1.39 0.45  
Sea Level Pressure  
Sea Level Pressure 30.02 in    
Wind  
Wind Speed 7 mph (NNE)    
Max Wind Speed 16 mph    
Max Gust Speed 20 mph    
Visibility 10 miles    
Events      
T = Trace of Precipitation, MM = Missing Value Source: NWS Daily Summary

Daily Weather History Graph

Daily Weather History Graph

Search for Another Location

Airport:

Trip Planner

Search our weather history database for the weather conditions in past years. The results will help you decide how hot, cold, wet, or windy it might be!

Date:

Astronomy

Jan. 22, 2014 Rise Set
Actual Time 7:19 AM MST 5:14 PM MST
Civil Twilight 6:50 AM MST 5:43 PM MST
Nautical Twilight 6:18 AM MST 6:15 PM MST
Astronomical Twilight 5:46 AM MST 6:47 PM MST
Moon 11:46 PM MST (1/22) 10:24 AM MST (1/22)
Length of Visible Light 10h 52m
Length of Day
9h 54m
Waning Gibbous, 65% of the Moon is Illuminated
Jan 22
Waning Gibbous
Jan 23
Last Quarter
Jan 30
New
Feb 6
First Quarter
Feb 14
Full

Hourly Weather History & Observations

Time (MST) Temp. Windchill Dew Point Humidity Pressure Visibility Wind Dir Wind Speed Gust Speed Precip Events Conditions
12:53 AM 10.9 °F 4.7 °F -20.9 °F 23% 30.19 in 10.0 mi Variable 3.5 mph - N/A   Clear
1:53 AM 15.1 °F 5.2 °F -22.0 °F 18% 30.12 in 10.0 mi North 6.9 mph - N/A   Clear
2:53 AM 10.9 °F 4.7 °F -20.9 °F 23% 30.14 in 10.0 mi Variable 3.5 mph - N/A   Clear
3:53 AM 10.0 °F -0.9 °F -20.0 °F 25% 30.13 in 10.0 mi NNE 6.9 mph - N/A   Clear
4:53 AM 10.0 °F -5.2 °F -18.9 °F 26% 30.11 in 10.0 mi NNE 12.7 mph - N/A   Clear
5:53 AM 12.9 °F -1.6 °F -18.0 °F 24% 30.10 in 10.0 mi NE 12.7 mph - N/A   Clear
6:53 AM 9.0 °F -3.2 °F -16.1 °F 31% 30.16 in 10.0 mi NNE 8.1 mph - N/A   Clear
7:53 AM 10.0 °F -1.9 °F -16.1 °F 30% 30.16 in 10.0 mi NE 8.1 mph - N/A   Clear
8:53 AM 19.0 °F 7.5 °F -15.0 °F 21% 30.12 in 10.0 mi NE 10.4 mph - N/A   Clear
9:53 AM 26.1 °F 20.5 °F -15.0 °F 16% 30.06 in 10.0 mi North 4.6 mph - N/A   Clear
10:53 AM 24.1 °F - -8.0 °F 24% 30.03 in 10.0 mi Calm Calm - N/A   Clear
11:53 AM 32.0 °F - -18.0 °F 11% 29.94 in 10.0 mi Calm Calm - N/A   Clear
12:53 PM 37.9 °F - -24.0 °F 6% 29.88 in 10.0 mi Calm Calm - N/A   Clear
1:53 PM 35.1 °F 26.4 °F -7.1 °F 16% 29.84 in 10.0 mi NW 12.7 mph - N/A   Partly Cloudy
2:53 PM 32.0 °F 23.6 °F -0.9 °F 24% 29.87 in 10.0 mi NW 10.4 mph - N/A   Clear
3:53 PM 32.0 °F 23.6 °F -0.0 °F 26% 29.89 in 10.0 mi NW 10.4 mph - N/A   Clear
4:53 PM 28.0 °F 19.3 °F -0.9 °F 29% 29.93 in 10.0 mi NW 9.2 mph - N/A   Clear
5:53 PM 24.1 °F 17.0 °F 1.0 °F 37% 29.93 in 10.0 mi NE 5.8 mph - N/A   Clear
6:53 PM 19.0 °F 6.8 °F -2.0 °F 40% 30.00 in 10.0 mi South 11.5 mph - N/A   Clear
7:53 PM 17.1 °F 11.7 °F -0.0 °F 47% 30.01 in 10.0 mi South 3.5 mph - N/A   Clear
8:53 PM 15.1 °F 5.2 °F 3.9 °F 61% 29.99 in 10.0 mi South 6.9 mph - N/A   Clear
9:53 PM 14.0 °F 1.2 °F 3.0 °F 62% 29.97 in 10.0 mi South 10.4 mph - N/A   Partly Cloudy
10:53 PM 12.9 °F -2.2 °F 3.0 °F 65% 29.99 in 10.0 mi South 13.8 mph - N/A   Mostly Cloudy
11:53 PM 12.0 °F 4.1 °F 3.9 °F 70% 29.96 in 10.0 mi SSW 4.6 mph - N/A   Overcast